Home   Weather   Aguascalientes   Past weeks

Flag for Mexico Past Weather in Aguascalientes, Aguascalientes, Mexico — Yesterday and Last 2 Weeks

Now
81 °F

Passing clouds.


Feels Like: 79 °F
Forecast: 64 / 89 °F
Wind: 12 mph from South

Location: Aguascalientes - Ags.

Current Time: Jun 23, 2017 at 12:14:08 am

Latest Report: Jun 22, 2017 at 10:40 pm


Visibility: 10 mi

Pressure: 30.08 "Hg (24.31 "Hg at 1870m altitude)

Humidity: 28%

Dew Point: 45 °F

Location of AguascalientesLocation

Past Weather in Aguascalientes — Graph

°F

Aguascalientes Temperature Yesterday

Maximum temperature yesterday: 90 °F (at 4:40 pm)
Minimum temperature yesterday: 61 °F (at 6:41 am)
Average temperature yesterday: 77 °F

High & Low Weather Summary for the Past Weeks

 TemperatureHumidityPressure
High91 °F (Jun 13, 5:48 pm)94% (Jun 10, 5:09 am)30.28 "Hg (Jun 10, 5:09 am)
Low57 °F (Jun 11, 6:51 am)6% (Jun 18, 4:44 pm)29.56 "Hg (Jun 9, 6:42 pm)
Average76 °F37%30.10 "Hg
* Reported Jun 7 10:42 pm — Jun 22 10:40 pm, Aguascalientes. Weather by CustomWeather, © 2017

Note: Actual official high and low records may vary slightly from our data, if they occured in-between our weather recording intervals... More about our weather records

Advertising

Aguascalientes Weather History for the Previous 24 Hours

Scroll right to see more
 ConditionsComfort  
Time TempWeatherWind HumidityBarometerVisibility
10:40 pm
Thu, Jun 22
81 °FPassing clouds.12 mph28%30.08 "Hg10 mi
9:44 pm79 °FPartly cloudy.5 mph21%30.05 "Hg10 mi
8:41 pm84 °FPassing clouds.2 mph18%30.03 "Hg10 mi
7:41 pm90 °FPassing clouds.6 mph13%30.01 "Hg10 mi
6:40 pm90 °FScattered clouds.6 mph12%29.83 "Hg10 mi
5:40 pm90 °FScattered clouds.6 mph14%30.03 "Hg10 mi
4:40 pm90 °FScattered clouds.5 mph14%30.05 "Hg10 mi
3:42 pm86 °FPartly sunny.6 mph18%30.08 "Hg10 mi
2:40 pm86 °FPartly sunny.6 mph18%30.11 "Hg10 mi
12:43 pm79 °FScattered clouds.5 mph37%29.74 "Hg7 mi
11:40 am75 °FPassing clouds.5 mph47%30.19 "Hg5 mi
10:47 am73 °FSunny.6 mph53%30.20 "Hg5 mi
9:44 am70 °FSunny.7 mph60%30.21 "Hg7 mi
8:49 am66 °FSunny.9 mph73%30.20 "Hg7 mi
7:55 am64 °FSunny.No wind78%30.19 "Hg7 mi
6:41 am61 °FClear.9 mph88%29.66 "Hg8 mi
6:11 am63 °FClear.5 mph83%30.15 "Hg8 mi
5:14 am64 °FClear.9 mph78%30.14 "Hg8 mi
Weather by CustomWeather, © 2017

See weather overviewHow to use our weather pages